Date,TemperatureHighF,TemperatureAvgF,TemperatureLowF,DewpointHighF,DewpointAvgF,DewpointLowF,HumidityHigh,HumidityAvg,HumidityLow,PressureMaxIn,PressureMinIn,WindSpeedMaxMPH,WindSpeedAvgMPH,GustSpeedMaxMPH,PrecipitationSumIn
2014-1-1,10,6,-1,4,2,-4,86,80,77,30.54,30.24,4,2,11,0.00
2014-1-2,13,8,-1,7,3,-4,88,80,67,30.60,30.38,4,1,7,0.00
2014-1-3,40,26,11,35,21,7,88,81,68,30.37,29.56,11,5,21,0.02
2014-1-4,42,21,6,35,14,0,82,74,63,30.36,29.68,11,4,19,0.01
2014-1-5,8,1,-9,0,-10,-20,76,60,41,30.70,30.37,13,6,19,0.00
2014-1-6,8,-4,-10,-8,-14,-20,75,61,45,30.66,30.53,9,5,16,0.00
2014-1-11,43,38,36,26,25,23,60,57,52,29.78,29.61,5,1,7,0.00
2014-1-12,49,44,36,34,30,25,71,57,45,29.73,29.46,8,1,11,0.00
2014-1-13,50,39,24,36,28,22,90,67,37,29.87,29.68,8,3,14,0.00
2014-1-14,46,32,19,36,15,4,72,51,30,30.31,29.69,14,7,23,0.00
2014-1-15,48,31,10,31,18,3,76,61,47,30.31,29.81,9,2,13,0.00
2014-1-16,46,32,18,28,17,4,61,52,44,30.17,29.79,17,11,27,0.00
2014-1-17,41,26,11,20,14,5,83,60,43,30.25,29.81,10,2,17,0.00
2014-1-18,43,37,25,30,26,20,85,65,51,30.11,29.76,18,6,36,0.00
2014-1-19,65,43,25,28,23,16,82,50,15,30.02,29.71,10,3,16,0.00
2014-1-20,42,27,2,31,16,-4,83,65,48,30.59,29.89,14,4,20,0.00
2014-1-21,36,15,-2,24,6,-7,80,66,43,30.59,30.11,10,4,19,0.00
2014-1-22,31,16,-2,23,8,-9,82,69,47,30.76,30.19,8,4,19,0.00
2014-1-23,21,7,-7,2,-8,-12,77,55,26,30.97,30.47,6,3,12,0.00
2014-1-24,50,32,17,34,17,2,63,54,45,30.46,29.85,10,5,19,0.00
2014-1-25,52,41,34,35,31,26,74,66,48,30.00,29.57,7,3,12,0.00
2014-1-26,52,32,5,34,18,-8,73,57,36,30.37,29.57,13,7,27,0.00
2014-1-27,12,4,-4,-7,-9,-11,72,56,38,30.60,30.36,9,3,17,0.00
2014-1-28,17,0,-7,-2,-9,-13,78,67,40,30.59,30.46,6,2,11,0.00
2014-1-30,20,19,18,11,11,10,72,71,69,30.13,30.11,0,0,1,0.00
2014-1-31,29,20,14,17,11,7,82,69,53,30.21,30.01,4,2,10,0.00
2014-2-1,24,17,6,19,10,0,88,72,51,30.39,29.98,8,3,14,0.00
2014-2-2,34,15,-4,15,6,-8,85,67,42,30.44,30.26,8,2,15,0.00
2014-2-8,21,18,12,15,13,8,87,79,68,30.36,30.13,3,1,7,0.00
2014-2-9,16,8,-1,12,2,-5,87,76,67,30.57,30.35,4,1,9,0.00
2014-2-10,15,5,-8,6,-1,-12,86,77,62,30.63,30.53,3,1,6,0.00
2014-2-11,26,19,11,22,14,6,86,81,77,30.53,30.04,11,5,20,0.00
2014-2-12,30,24,19,27,20,14,92,85,75,30.25,30.03,9,3,17,0.00
2014-2-13,49,39,25,32,26,20,81,60,43,29.84,29.68,8,3,14,0.00
2014-2-14,26,21,17,20,14,11,80,74,63,30.12,29.73,5,1,12,0.00
2014-2-15,55,37,23,34,26,14,87,67,31,30.13,29.84,13,4,21,0.00
2014-2-16,40,30,22,31,25,20,93,83,64,30.16,29.79,10,5,20,0.00
2014-2-17,54,42,34,34,26,19,93,60,26,29.99,29.75,10,3,17,0.11
2014-2-18,60,44,30,31,24,20,81,47,27,29.97,29.62,14,3,20,0.00
2014-2-19,57,41,23,26,23,18,85,54,24,29.96,29.58,12,4,22,0.00
2014-2-20,40,32,21,32,24,15,93,70,53,29.83,29.60,13,6,24,0.01
2014-2-21,46,30,19,30,21,14,85,69,46,29.94,29.79,9,2,16,0.00
2014-2-22,38,29,23,25,18,10,86,64,40,30.29,29.93,5,1,8,0.00
2014-2-23,25,19,16,11,9,8,73,66,53,30.45,30.28,1,0,6,0.00
2014-2-24,23,20,9,20,14,5,91,81,65,30.51,30.25,6,2,13,0.00
2014-2-25,16,9,2,6,2,-3,83,73,55,30.62,30.48,7,3,14,0.00
2014-2-26,35,15,-5,16,4,-9,86,66,36,30.61,30.03,8,3,15,0.00
2014-2-27,21,12,2,8,1,-4,81,62,43,30.25,29.91,7,3,15,0.00
2014-2-28,32,19,11,20,9,2,84,67,56,30.32,29.83,8,4,17,0.00
2014-3-1,11,3,-5,4,-2,-10,83,79,72,30.71,30.33,4,2,15,0.00
2014-3-2,4,-4,-11,-10,-13,-16,79,66,49,30.81,30.69,4,1,9,0.00
2014-3-3,24,5,-14,10,-6,-18,81,64,46,30.75,30.23,10,3,19,0.00
2014-3-4,17,17,17,13,13,13,83,83,83,30.26,30.24,1,0,2,0.02
2014-3-5,30,22,16,20,16,12,85,77,63,30.41,30.26,4,1,8,0.00
2014-3-6,53,36,19,34,26,15,86,71,46,30.29,29.75,10,4,17,0.01
2014-3-7,43,34,26,37,29,20,89,82,73,30.12,29.73,7,4,16,0.00
2014-3-9,74,63,54,34,29,26,46,28,18,29.96,29.79,8,3,22,0.00
2014-3-10,75,57,41,39,34,28,69,45,24,29.81,29.53,4,1,8,0.00
2014-3-11,52,41,35,40,35,31,93,80,59,30.19,29.48,10,3,13,0.10
2014-3-14,59,51,41,26,24,21,53,35,24,29.92,29.87,10,4,17,0.00
2014-3-15,47,37,28,31,25,22,89,63,41,30.38,29.77,7,3,16,0.00
2014-3-16,43,31,20,24,20,16,88,65,40,30.46,30.02,5,2,11,0.00
2014-3-17,65,46,32,30,25,16,63,45,26,30.01,29.32,8,4,17,0.00
2014-3-18,52,39,30,34,30,27,92,72,43,29.97,29.33,8,4,20,0.00
2014-3-19,51,38,28,33,29,25,91,72,40,30.14,29.97,6,3,16,0.00
2014-3-20,63,45,28,32,24,17,89,52,17,30.06,29.77,5,1,13,0.00
2014-3-21,44,34,30,27,23,19,75,66,37,30.33,29.77,5,2,12,0.00
2014-3-22,29,23,15,22,12,7,82,64,45,30.62,30.33,6,2,14,0.00
2014-3-23,38,25,9,20,12,6,89,62,38,30.62,30.30,6,2,12,0.00
2014-3-24,38,33,28,24,20,15,79,60,47,30.35,30.26,7,2,12,0.00
2014-3-25,38,29,19,22,13,8,81,54,30,30.47,30.11,6,3,12,0.00
2014-3-26,67,44,28,42,27,10,88,54,31,30.11,29.44,15,8,28,0.00
2014-3-27,45,37,30,42,33,25,95,87,75,29.92,29.34,11,5,24,0.00
2014-3-28,34,28,21,25,22,18,91,81,70,30.35,29.92,2,1,20,0.00
2014-3-29,60,38,17,33,25,15,93,67,33,30.36,29.97,11,4,24,0.01
2014-3-30,70,56,46,39,32,-100,55,42,26,29.97,29.47,9,4,20,0.00
2014-3-31,64,41,24,40,28,15,84,64,37,29.99,29.23,14,8,31,0.00
2014-4-1,36,26,18,23,17,12,77,68,54,30.20,29.99,11,3,22,0.00
2014-4-2,45,35,24,37,28,18,95,76,49,30.19,29.88,9,3,17,0.00
2014-4-3,38,35,33,36,33,32,96,95,92,29.96,29.82,8,2,19,0.06
2014-4-4,46,36,30,32,28,26,92,73,47,30.18,29.96,9,4,20,0.06
2014-4-5,65,47,30,38,32,27,87,60,28,30.12,29.86,12,4,27,0.00
2014-4-6,66,54,44,47,40,32,87,61,42,29.91,29.72,9,3,19,0.20
2014-4-7,60,49,40,43,37,28,89,67,32,29.91,29.79,8,3,17,0.00
2014-4-8,58,43,32,34,28,19,91,62,24,30.15,30.00,7,2,13,0.00
2014-4-9,82,61,40,37,30,24,55,35,13,30.03,29.57,8,3,16,0.00
2014-4-10,66,57,44,40,31,20,73,41,18,29.96,29.62,7,2,22,0.00
2014-4-11,75,61,41,42,35,26,91,44,17,30.00,29.67,7,3,18,0.00
2014-4-12,78,66,54,50,42,36,76,44,27,29.67,29.50,11,3,26,0.00
2014-4-13,56,38,30,40,33,23,95,81,48,30.12,29.64,9,5,23,0.13
2014-4-14,31,27,25,23,18,14,73,68,62,30.29,30.12,7,5,21,0.00
2014-4-15,56,38,20,34,25,16,87,63,37,30.26,29.71,10,4,24,0.00
2014-4-16,52,42,32,37,29,25,82,61,45,30.19,29.58,12,6,27,0.00
2014-4-17,44,33,29,26,24,23,79,72,47,30.38,30.20,5,2,11,0.00
2014-4-18,69,49,36,45,35,25,77,59,39,30.25,29.93,14,5,30,0.00
2014-4-19,71,61,52,51,46,41,73,59,48,29.96,29.88,9,3,20,0.00
2014-4-20,80,66,50,60,47,36,70,52,37,29.95,29.81,6,2,14,0.02
2014-4-21,72,63,52,55,35,25,82,39,18,30.12,29.83,9,3,17,0.00
2014-4-22,70,55,36,36,32,30,82,45,26,30.13,29.85,9,4,21,0.00
2014-4-23,77,60,52,53,43,35,90,54,40,29.85,29.45,16,8,35,0.02
2014-4-24,69,58,47,54,36,21,93,50,17,29.79,29.58,9,4,21,0.31
2014-4-25,76,59,40,38,34,30,80,44,20,29.81,29.71,5,1,10,0.00
2014-4-26,78,66,51,58,47,35,70,51,37,29.74,29.34,12,6,28,0.00
2014-4-27,74,65,61,59,55,49,86,71,50,29.34,29.09,13,7,28,0.00
2014-4-28,67,54,44,57,49,42,94,84,47,29.50,29.10,8,2,20,0.18
2014-4-29,44,41,37,42,39,35,94,91,82,29.97,29.50,7,3,18,0.10
2014-4-30,47,42,38,39,35,30,91,76,54,30.03,29.97,10,5,19,0.02
2014-5-1,53,46,40,39,36,32,92,70,48,30.03,29.98,9,4,19,0.00
2014-5-2,70,52,35,44,36,30,84,57,28,30.00,29.79,8,2,18,0.00
2014-5-3,70,55,40,46,41,36,87,62,40,29.94,29.88,3,1,10,0.00
2014-5-4,64,53,41,43,39,33,79,60,44,29.99,29.79,7,3,20,0.00
2014-5-5,73,58,42,46,43,38,85,59,36,29.90,29.74,5,1,13,0.00
2014-5-6,75,62,48,56,48,42,81,62,47,29.74,29.50,6,2,16,0.00
2014-5-7,76,65,54,57,52,47,78,63,49,29.66,29.44,7,1,15,0.00
2014-5-8,61,52,43,53,48,39,94,87,67,29.83,29.52,8,3,17,0.20
2014-5-9,69,54,39,43,39,36,89,61,34,29.89,29.73,7,2,16,0.00
2014-5-10,78,66,54,49,42,34,73,47,21,29.79,29.63,8,2,19,0.01
2014-5-11,61,54,48,52,47,41,93,78,53,29.83,29.60,5,2,17,0.45
2014-5-12,48,44,42,46,41,38,95,91,80,30.14,29.75,9,5,21,0.29
2014-5-13,61,49,37,40,34,30,85,59,33,30.32,30.13,7,2,14,0.00
2014-5-14,66,50,36,46,33,29,82,56,27,30.32,30.15,6,1,15,0.04
2014-5-15,55,44,30,34,29,25,90,58,35,30.26,30.16,5,1,16,0.00
2014-5-16,54,44,32,39,33,27,87,66,45,30.19,30.08,4,1,9,0.00
2014-5-17,65,51,35,44,37,29,95,63,28,30.17,30.05,6,2,16,0.00
2014-5-18,72,60,44,50,44,39,82,57,38,30.09,29.76,10,4,24,0.00
2014-5-19,80,68,60,62,57,50,85,70,51,29.76,29.56,7,2,17,0.00
2014-5-20,85,71,57,59,53,47,85,56,29,29.87,29.69,2,1,12,0.00
2014-5-21,76,65,54,51,47,44,75,53,34,30.08,29.87,3,0,12,0.00
2014-5-22,79,67,57,55,50,46,77,55,40,30.15,30.04,4,1,12,0.00
2014-5-23,81,68,54,60,52,46,95,62,30,30.13,29.99,5,1,17,0.00
2014-5-24,81,70,62,62,56,51,85,63,39,30.03,29.87,5,1,15,0.00
2014-5-25,84,72,62,66,63,59,93,75,52,29.94,29.77,4,1,11,0.00
2014-5-26,86,73,64,68,63,59,94,73,42,29.86,29.77,4,1,10,0.00
2014-5-27,89,73,62,66,61,58,92,70,37,29.92,29.80,4,1,14,0.29
2014-5-28,89,75,60,65,60,56,92,62,33,29.96,29.89,2,1,9,0.00
2014-5-29,87,74,59,65,60,56,94,64,37,29.97,29.86,4,1,14,0.00
2014-5-30,90,77,64,68,63,58,89,63,37,29.97,29.84,6,1,16,0.00
2014-5-31,83,73,68,68,65,62,90,76,53,29.93,29.77,6,1,15,0.05
2014-6-1,83,70,62,68,63,58,92,79,58,29.79,29.55,11,2,22,0.13
2014-6-2,81,69,57,60,55,50,95,66,34,29.92,29.72,5,2,14,0.00
2014-6-3,76,62,57,66,58,52,97,87,62,29.98,29.59,8,2,22,2.21
2014-6-4,78,68,58,65,61,58,97,80,55,29.88,29.70,3,0,9,0.01
2014-6-5,83,71,62,64,60,50,94,70,34,29.89,29.76,3,0,10,0.00
2014-6-6,86,72,55,64,56,48,93,61,28,29.91,29.78,3,0,9,0.00
2014-6-7,67,60,54,60,52,48,86,75,61,30.08,29.85,4,1,11,0.00
2014-6-8,68,59,50,52,50,46,91,72,49,30.08,29.92,4,1,16,0.00
2014-6-9,60,56,53,58,54,51,96,94,83,29.97,29.90,3,0,14,1.11
2014-6-10,78,64,49,61,56,49,97,77,49,29.95,29.76,3,0,9,0.00
2014-6-11,82,70,58,64,59,55,91,69,49,29.87,29.66,7,2,21,0.00
2014-6-12,71,62,51,55,47,40,86,61,35,30.07,29.86,6,2,13,0.00
2014-6-13,79,64,43,54,46,40,93,57,34,30.08,29.71,8,3,23,0.00
2014-6-14,81,72,65,69,62,53,92,71,60,29.71,29.41,8,2,22,0.17
2014-6-15,80,68,58,62,55,46,95,68,32,29.83,29.48,5,2,13,1.08
2014-6-16,88,72,62,76,65,55,92,78,59,29.83,29.43,11,2,26,0.10
2014-6-17,94,78,64,73,68,60,89,73,48,29.62,29.51,5,2,18,0.00
2014-6-18,95,83,73,73,70,63,90,66,37,29.67,29.52,8,3,21,0.00
2014-6-19,84,73,61,68,60,52,93,65,36,29.93,29.63,5,1,12,0.56
2014-6-20,89,74,59,72,63,53,95,70,49,29.93,29.71,8,2,18,0.97
2014-6-21,86,68,64,70,51,-100,95,69,51,29.89,29.71,6,2,15,0.01
2014-6-22,83,73,64,70,66,63,95,79,55,29.85,29.71,3,1,9,0.12
2014-6-23,82,72,63,62,59,52,86,66,37,29.95,29.82,2,0,6,0.00
2014-6-24,84,71,56,61,56,50,93,64,33,29.98,29.91,3,0,10,0.00
2014-6-25,86,74,58,67,63,57,95,71,44,29.96,29.84,4,1,11,0.00
2014-6-26,86,75,67,70,67,63,93,77,48,29.86,29.65,8,2,16,0.00
2014-6-27,76,71,64,73,68,61,94,88,74,29.69,29.47,8,2,20,0.25
2014-6-28,80,68,63,69,63,61,95,86,60,29.72,29.52,8,2,19,0.42
2014-6-29,87,76,63,72,67,61,95,75,43,29.80,29.64,5,1,13,0.01
2014-6-30,81,72,61,72,62,52,96,74,39,29.78,29.55,7,1,23,0.84
2014-7-1,72,66,60,58,55,51,80,69,57,29.99,29.74,9,3,19,0.00
2014-7-2,74,62,53,52,50,46,91,66,38,30.17,29.99,3,1,8,0.00
2014-7-3,81,68,52,62,56,48,89,69,50,30.17,30.06,6,2,15,0.00
2014-7-4,84,74,62,66,61,57,84,66,54,30.11,29.94,9,3,22,0.00
2014-7-5,92,79,67,75,68,61,88,70,47,29.96,29.77,6,2,17,0.00
2014-7-6,92,80,69,73,66,58,96,67,36,29.81,29.73,3,0,8,0.00
2014-7-7,81,71,60,68,62,57,90,74,56,29.85,29.72,4,0,10,0.02
2014-7-8,81,70,59,60,56,54,90,65,40,29.99,29.83,5,1,12,0.00
2014-7-9,81,65,54,66,59,52,94,82,43,30.02,29.89,5,0,12,0.22
2014-7-10,82,72,61,71,66,59,96,80,64,29.97,29.82,7,2,19,0.01
2014-7-11,82,74,68,74,70,65,95,85,74,29.94,29.83,4,1,12,0.51
2014-7-12,82,72,67,72,68,65,95,87,66,30.00,29.88,3,0,12,0.41
2014-7-13,86,74,63,72,65,61,97,77,44,30.03,29.91,3,0,15,0.02
2014-7-14,72,66,57,61,53,47,95,66,43,30.16,29.93,5,1,13,0.06
2014-7-15,74,61,49,54,51,46,92,70,44,30.19,30.04,3,0,8,0.00
2014-7-16,77,64,49,57,53,48,95,70,44,30.08,29.99,2,0,6,0.00
2014-7-17,78,67,52,60,56,51,95,71,44,30.03,29.93,4,1,11,0.00
2014-7-18,76,67,58,64,60,56,92,79,64,29.97,29.85,8,3,22,0.00
2014-7-19,79,71,62,70,65,59,91,81,68,29.90,29.79,5,2,14,0.00
2014-7-20,87,74,67,76,69,65,92,84,69,29.79,29.68,5,2,14,0.00
2014-7-21,98,83,72,80,74,70,96,76,43,29.74,29.67,5,1,12,0.00
2014-7-22,86,79,70,72,67,62,86,69,57,30.12,29.74,3,0,12,0.00
2014-7-23,83,72,62,65,61,57,90,70,46,30.23,30.07,3,1,10,0.00
2014-7-24,85,73,62,71,65,60,92,76,62,30.08,29.71,8,3,24,0.04
2014-7-25,92,80,71,76,72,65,91,76,55,29.73,29.61,12,1,25,0.00
2014-7-26,85,76,68,74,72,66,96,85,69,29.91,29.67,7,1,30,1.15
2014-7-27,81,70,59,66,59,54,94,68,47,30.18,29.91,5,1,12,0.00
2014-7-28,78,65,53,60,56,52,95,75,49,30.26,30.15,2,0,8,0.00
2014-7-29,79,66,54,61,57,52,95,74,47,30.19,30.06,2,0,6,0.00
2014-7-30,81,68,55,63,58,54,96,73,47,30.12,30.03,2,0,7,0.00
2014-7-31,84,71,62,72,62,57,89,75,54,30.07,29.91,4,1,13,0.13
2014-8-1,83,71,57,66,61,56,97,72,42,30.05,29.99,2,0,8,0.00
2014-8-2,84,75,65,69,66,62,92,75,55,30.10,29.95,4,1,13,0.04
2014-8-3,85,74,64,70,67,63,95,80,59,30.01,29.94,3,0,10,0.00
2014-8-4,81,72,64,71,68,63,96,87,68,30.04,29.94,3,0,10,0.00
2014-8-5,84,73,68,70,68,66,96,84,60,30.01,29.89,6,2,16,0.21
2014-8-6,75,70,66,70,68,65,96,91,84,29.92,29.86,3,1,13,0.65
2014-8-7,76,69,64,68,66,63,96,90,74,29.93,29.87,2,0,7,0.21
2014-8-8,78,71,62,70,67,60,96,88,72,29.97,29.88,7,1,21,0.65
2014-8-9,73,66,62,68,64,61,97,93,83,29.97,29.88,3,0,9,0.10
2014-8-10,83,71,64,72,67,63,97,87,67,30.06,29.95,2,0,7,0.26
2014-8-11,77,67,58,64,58,53,96,74,47,30.15,30.06,3,0,10,0.00
2014-8-12,80,66,53,61,56,51,95,73,46,30.16,30.03,1,0,6,0.00
2014-8-13,83,70,57,67,61,55,94,76,54,30.10,29.97,4,1,11,0.00
2014-8-14,83,72,62,70,64,58,89,77,61,30.01,29.84,6,2,17,0.00
2014-8-15,79,71,66,71,67,64,94,87,74,29.84,29.75,4,1,13,0.02
2014-8-16,88,75,68,76,70,67,97,86,57,29.85,29.76,3,0,7,0.00
2014-8-17,89,76,63,72,67,58,97,77,51,29.90,29.71,4,0,11,0.02
2014-8-18,90,75,60,68,62,57,90,66,43,29.82,29.70,2,0,6,0.00
2014-8-19,86,74,62,69,65,60,93,74,49,29.77,29.68,4,0,11,0.00
2014-8-20,88,76,69,78,71,66,95,84,65,29.72,29.62,5,2,13,0.10
2014-8-21,90,80,70,74,70,64,86,73,58,29.80,29.61,6,1,14,0.00
2014-8-22,89,78,69,75,71,67,94,78,50,29.87,29.79,3,0,15,0.01
2014-8-23,86,74,66,76,70,65,96,86,67,29.89,29.63,7,1,18,0.48
2014-8-24,84,74,65,71,63,56,96,71,40,29.83,29.65,3,0,10,0.47
2014-8-25,77,64,59,62,55,52,93,70,50,30.06,29.83,3,0,8,0.00
2014-8-26,73,61,59,66,56,55,94,78,72,30.17,30.02,2,0,10,0.03
2014-8-27,67,57,64,64,56,62,96,85,92,30.09,30.03,1,0,6,0.26
2014-8-28,82,67,68,72,64,66,97,81,71,29.96,29.71,5,1,14,0.55
2014-8-29,76,65,63,69,62,60,97,85,75,29.82,29.69,3,0,9,0.04
2014-8-30,81,66,60,66,59,58,96,75,58,29.92,29.74,3,1,11,0.00
2014-8-31,84,65,61,69,58,59,94,73,55,29.73,29.54,4,1,11,0.00
2014-9-1,81,64,58,63,54,53,96,70,40,29.94,29.60,7,1,13,0.19
2014-9-2,79,62,53,61,53,51,97,67,48,29.95,29.82,5,1,12,0.01
2014-9-3,83,67,65,76,63,59,95,78,73,29.81,29.56,10,2,21,0.00
2014-9-4,78,68,62,72,58,51,89,65,49,29.99,29.53,7,2,18,0.00
2014-9-5,65,55,50,56,49,48,94,76,68,30.27,30.00,2,0,5,0.03
2014-9-6,75,54,45,57,45,44,97,64,41,30.31,30.17,4,0,8,0.00
2014-9-7,77,59,52,58,48,48,92,60,46,30.18,29.89,6,2,17,0.00
2014-9-8,83,65,60,71,57,53,89,67,62,29.89,29.67,6,2,15,0.00
2014-9-9,75,61,59,69,58,57,97,81,71,29.72,29.57,6,0,12,0.02
2014-9-10,63,47,50,61,45,47,95,82,88,30.14,29.63,4,2,12,0.01
2014-9-11,52,41,45,48,38,43,95,76,76,30.42,30.14,1,0,6,0.18
2014-9-12,56,42,40,44,36,38,95,70,52,30.51,30.40,1,0,6,0.26
2014-9-13,61,45,38,46,37,36,94,66,52,30.41,30.16,10,3,23,0.01
2014-9-14,70,53,42,56,46,41,95,71,53,30.20,30.02,4,0,12,0.00
2014-9-15,65,49,45,53,40,42,93,62,45,30.25,30.03,1,0,9,0.00
2014-9-16,69,52,43,57,45,40,92,69,59,30.24,29.93,8,2,19,0.00
2014-9-17,83,59,50,66,51,49,96,66,45,29.94,29.84,2,0,8,0.00
2014-9-18,78,59,58,63,54,57,97,72,56,29.95,29.81,5,1,16,0.00
2014-9-19,89,67,62,69,58,59,95,64,48,29.83,29.64,9,3,21,0.00